Sauk Centre, MN

1:16 AM CST on December 15, 2017 (GMT -0600)
Sauk Centre

Weather History for KD39 - September, 2012

Change the Weather History Date:

Saturday, September 8, 2012

  Actual Average (KGHW) Record (KGHW)
Temperature  
Mean Temperature 56 °F -  
Max Temperature 71 °F 75 °F 93 °F (1959)
Min Temperature 42 °F 49 °F 33 °F (1992)
Degree Days  
Heating Degree Days 8    
Growing Degree Days 6 (Base 50)    
Moisture  
Dew Point 44 °F    
Average Humidity 64    
Maximum Humidity 100    
Minimum Humidity 31    
Precipitation  
Precipitation 0.00 in - - ()
Sea Level Pressure  
Sea Level Pressure 29.99 in    
Wind  
Wind Speed 9 mph (NW)    
Max Wind Speed 26 mph    
Max Gust Speed 34 mph    
Visibility 10 miles    
Events      
Averages and records for this station are not official NWS values.
T = Trace of Precipitation, MM = Missing Value Source: NWS Daily Summary

Daily Weather History Graph

Daily Weather History Graph

Search for Another Location

Airport or City:

Trip Planner

Search our weather history database for the weather conditions in past years. The results will help you decide how hot, cold, wet, or windy it might be!

Date:

Astronomy

Sep. 08, 2012 Rise Set
Actual Time 6:50 AM CDT 7:43 PM CDT
Civil Twilight 6:19 AM CDT 8:13 PM CDT
Nautical Twilight 5:43 AM CDT 8:49 PM CDT
Astronomical Twilight 5:05 AM CDT 9:27 PM CDT
Moon No Moon Rise 2:55 PM CDT (9/8)
Length of Visible Light 13h 53m
Length of Day
12h 53m
Waning Gibbous, 48% of the Moon is Illuminated
Sep 8
Waning Gibbous
Sep 15
New
Sep 22
First Quarter
Sep 29
Full
Oct 8
Last Quarter

Hourly Weather History & Observations

Time (CDT) Temp. Windchill Dew Point Humidity Pressure Visibility Wind Dir Wind Speed Gust Speed Precip Events Conditions
12:15 AM 48.2 °F - 44.6 °F 87% 30.06 in 10.0 mi West 3.5 mph - N/A   Unknown
12:55 AM 46.4 °F 45.2 °F 42.8 °F 87% 30.05 in 10.0 mi WNW 3.5 mph - N/A   Unknown
1:15 AM 46.4 °F 45.2 °F 44.6 °F 93% 30.05 in 10.0 mi West 3.5 mph - N/A   Unknown
1:35 AM 46.4 °F 45.2 °F 44.6 °F 93% 30.04 in 10.0 mi West 3.5 mph - N/A   Unknown
1:55 AM 46.4 °F 45.2 °F 44.6 °F 93% 30.05 in 10.0 mi West 3.5 mph - N/A   Unknown
2:15 AM 46.4 °F 45.2 °F 44.6 °F 93% 30.05 in 10.0 mi West 3.5 mph - N/A   Unknown
2:35 AM 46.4 °F - 44.6 °F 93% 30.04 in 10.0 mi Calm Calm - N/A   Unknown
2:55 AM 46.4 °F - 46.4 °F 100% 30.04 in 10.0 mi Calm Calm - N/A   Unknown
3:15 AM 46.4 °F - 44.6 °F 93% 30.04 in 10.0 mi Calm Calm - N/A   Unknown
3:35 AM 46.4 °F - 46.4 °F 100% 30.03 in 10.0 mi Calm Calm - N/A   Unknown
3:55 AM 46.4 °F - 46.4 °F 100% 30.03 in 10.0 mi Calm Calm - N/A   Unknown
4:15 AM 46.4 °F 45.2 °F 44.6 °F 93% 30.02 in 10.0 mi West 3.5 mph - N/A   Unknown
4:35 AM 46.4 °F - 44.6 °F 93% 30.02 in 10.0 mi Calm Calm - N/A   Unknown
4:55 AM 46.4 °F - 44.6 °F 93% 30.01 in 10.0 mi Calm Calm - N/A   Unknown
5:15 AM 44.6 °F - 44.6 °F 100% 30.01 in 10.0 mi Calm Calm - N/A   Unknown
5:35 AM 44.6 °F - 44.6 °F 100% 30.00 in 10.0 mi Calm Calm - N/A   Unknown
5:55 AM 44.6 °F 43.1 °F 42.8 °F 93% 30.00 in 10.0 mi SW 3.5 mph - N/A   Unknown
6:15 AM 42.8 °F - 42.8 °F 100% 29.99 in 10.0 mi Calm Calm - N/A   Unknown
6:55 AM 44.6 °F - 44.6 °F 100% 29.99 in 10.0 mi Calm Calm - N/A   Unknown
7:15 AM 44.6 °F - 44.6 °F 100% 29.99 in 10.0 mi Calm Calm - N/A   Unknown
7:35 AM 46.4 °F - 46.4 °F 100% 29.98 in 10.0 mi Calm Calm - N/A   Unknown
7:55 AM 51.8 °F - 46.4 °F 82% 29.98 in 10.0 mi WSW 6.9 mph - N/A   Unknown
8:15 AM 53.6 °F - 48.2 °F 82% 29.97 in 10.0 mi WSW 6.9 mph - N/A   Unknown
8:35 AM 55.4 °F - 46.4 °F 72% 29.96 in 10.0 mi WSW 13.8 mph - N/A   Unknown
8:55 AM 59.0 °F - 46.4 °F 63% 29.95 in 10.0 mi West 12.7 mph 17.3 mph N/A   Unknown
9:15 AM 60.8 °F - 46.4 °F 59% 29.94 in 10.0 mi West 13.8 mph 19.6 mph N/A   Unknown
9:55 AM 64.4 °F - 44.6 °F 49% 29.92 in 10.0 mi WSW 15.0 mph 21.9 mph N/A   Unknown
10:15 AM 64.4 °F - 44.6 °F 49% 29.92 in 10.0 mi West 18.4 mph 23.0 mph N/A   Unknown
10:35 AM 66.2 °F - 44.6 °F 46% 29.90 in 10.0 mi West 15.0 mph 24.2 mph N/A   Unknown
10:55 AM 66.2 °F - 44.6 °F 46% 29.91 in 10.0 mi West 18.4 mph 26.5 mph N/A   Unknown
11:15 AM 68.0 °F - 44.6 °F 43% 29.90 in 10.0 mi West 18.4 mph 25.3 mph N/A   Unknown
11:55 AM 69.8 °F - 44.6 °F 40% 29.89 in 10.0 mi WNW 15.0 mph - N/A   Unknown
12:15 PM 68.0 °F - 42.8 °F 40% 29.90 in 10.0 mi WNW 15.0 mph 25.3 mph N/A   Unknown
12:35 PM 69.8 °F - 44.6 °F 40% 29.90 in 10.0 mi WNW 17.3 mph 26.5 mph N/A   Unknown
12:55 PM 69.8 °F - 46.4 °F 43% 29.90 in 10.0 mi NW 16.1 mph 23.0 mph N/A   Unknown
1:15 PM 68.0 °F - 46.4 °F 46% 29.90 in 10.0 mi WNW 17.3 mph 25.3 mph N/A   Unknown
1:35 PM 69.8 °F - 46.4 °F 43% 29.90 in 10.0 mi NW 21.9 mph 29.9 mph N/A   Unknown
1:55 PM 71.6 °F - 42.8 °F 35% 29.91 in 10.0 mi WNW 23.0 mph 28.8 mph N/A   Unknown
2:15 PM 71.6 °F - 42.8 °F 35% 29.91 in 10.0 mi NW 21.9 mph 28.8 mph N/A   Unknown
2:35 PM 71.6 °F - 39.2 °F 31% 29.91 in 10.0 mi NW 25.3 mph 32.2 mph N/A   Unknown
2:55 PM 71.6 °F - 41.0 °F 33% 29.92 in 10.0 mi NW 26.5 mph 34.5 mph N/A   Unknown
3:15 PM 69.8 °F - 37.4 °F 31% 29.92 in 10.0 mi NNW 21.9 mph 32.2 mph N/A   Unknown
3:35 PM 69.8 °F - 37.4 °F 31% 29.93 in 10.0 mi NW 24.2 mph 34.5 mph N/A   Unknown
3:55 PM 68.0 °F - 41.0 °F 37% 29.94 in 10.0 mi NW 24.2 mph 34.5 mph N/A   Unknown
4:15 PM 68.0 °F - 41.0 °F 37% 29.94 in 10.0 mi NW 24.2 mph 33.4 mph N/A   Unknown
4:35 PM 68.0 °F - 41.0 °F 37% 29.95 in 10.0 mi NNW 25.3 mph 32.2 mph N/A   Unknown
4:55 PM 68.0 °F - 41.0 °F 37% 29.96 in 10.0 mi NNW 21.9 mph 32.2 mph N/A   Unknown
5:15 PM 68.0 °F - 41.0 °F 37% 29.97 in 10.0 mi NNW 20.7 mph 28.8 mph N/A   Unknown
5:35 PM 66.2 °F - 42.8 °F 43% 29.98 in 10.0 mi NNW 21.9 mph 31.1 mph N/A   Unknown
5:55 PM 64.4 °F - 42.8 °F 45% 29.99 in 10.0 mi NNW 25.3 mph 33.4 mph N/A   Unknown
6:15 PM 64.4 °F - 42.8 °F 45% 29.99 in 10.0 mi NNW 20.7 mph 26.5 mph N/A   Unknown
6:35 PM 64.4 °F - 42.8 °F 45% 30.00 in 10.0 mi NNW 24.2 mph 29.9 mph N/A   Unknown
6:55 PM 64.4 °F - 44.6 °F 49% 30.00 in 10.0 mi NNW 20.7 mph 27.6 mph N/A   Unknown
7:15 PM 62.6 °F - 44.6 °F 52% 30.01 in 10.0 mi NNW 17.3 mph 23.0 mph N/A   Unknown
7:35 PM 62.6 °F - 44.6 °F 52% 30.02 in 10.0 mi NNW 18.4 mph 26.5 mph N/A   Unknown
7:55 PM 62.6 °F - 44.6 °F 52% 30.03 in 10.0 mi North 17.3 mph 28.8 mph N/A   Unknown
8:15 PM 62.6 °F - 44.6 °F 52% 30.04 in 10.0 mi North 11.5 mph 25.3 mph N/A   Unknown
8:35 PM 62.6 °F - 46.4 °F 55% 30.05 in 10.0 mi NNW 13.8 mph 23.0 mph N/A   Unknown
8:55 PM 62.6 °F - 46.4 °F 55% 30.06 in 10.0 mi North 12.7 mph 25.3 mph N/A   Unknown
9:15 PM 60.8 °F - 46.4 °F 59% 30.07 in 10.0 mi NNW 12.7 mph 19.6 mph N/A   Unknown
9:55 PM 60.8 °F - 46.4 °F 59% 30.08 in 10.0 mi NNW 8.1 mph - N/A   Unknown
10:15 PM 59.0 °F - 46.4 °F 63% 30.09 in 10.0 mi NNW 9.2 mph - N/A   Unknown
10:35 PM 59.0 °F - 48.2 °F 67% 30.09 in 10.0 mi NNW 6.9 mph - N/A   Unknown
11:55 PM 59.0 °F - 50.0 °F 72% 30.10 in 10.0 mi NNW 8.1 mph - N/A   Unknown